Portada
METAR-TAF:

METAR-TAF

Aeroports :

Shawano, Wisconsin, Estats Units d'Amèrica

latitud: 44-47-14N, longitud: 088-33-36W, altitud: 248 m

Observació

L'informe es va fer fa 21 minuts, a les 03:35 UTC
Vent 7 kt del Sud-Est
Temperatura -2°C
Humitat 80%
Pressió 1016 hPa
Visibilitat: 16.1 km
Cel cobert a una alçada de 1100 ft

METAR: KEZS 120335Z AUTO 13007KT 10SM OVC011 M02/M05 A3001 RMK AO2 T10231047

Hora: 21:56 (03:56 UTC)


TAF: manca

Observacions i pronòstics meteorològics de més de 4000 aeroports (METAR i TAF).

Les estacions disponibles són els punts grocs i vermells al mapa.

Posi el ratolí al punt desitjat per veure el nom de l'estació.

Feu clic per veure les observacions i els pronòstics meteorològics.

Per canviar el mapa: feu clic els botons verds amb una creu de color negre per apropar; al botó verd amb un guió per allunyar la imatge; o en les fletxes verdes per a mapes adjacents.


METAR-TAF: